Date String (YYYY-MM-DD hh:mm:ss) UTC,Instrument flags,Ambient pressure (hPa),Sample flow (lpm),Bypass flow (lpm),Sample temperature (°C),Ambient temperature (°C),ASC tube jacket temperature (°C),LED temperature (°C),Box temperature (°C),Sample RH (%),Span deviation,Mass concentration (μg/m³),Mass concentration (μg/m³),Mass concentration (μg/m³)
DateTimeUTC,F1_M11,P_M11,Q1_M11,Q2_M11,T1_M11,T2_M11,T3_M11,T4_M11,T5_M11,U1_M11,ZSPAN_M11,X0_M11,X2_M11,X1_M11
2022-10-11 22:00:00,,0819.5,4.99,0.00,28.0,26.9,00.0,36.8,29.8,10.7,0000.0,0010.18,0004.79,0004.24
2022-10-11 22:01:00,,0819.6,5.01,0.00,28.0,26.9,00.0,36.8,29.9,10.9,0000.0,0010.22,0004.80,0004.22
2022-10-11 22:02:00,,0819.6,4.99,0.00,28.0,27.0,00.0,36.8,29.9,11.0,0000.0,0010.25,0004.81,0004.20
2022-10-11 22:03:00,,0819.7,5.01,0.00,28.1,27.0,00.0,36.8,30.0,10.9,0000.0,0010.47,0004.83,0004.20
2022-10-11 22:04:00,,0819.6,4.99,0.00,28.1,27.0,00.0,36.8,30.0,10.8,0000.0,0011.47,0004.82,0004.18
2022-10-11 22:05:00,,0819.6,5.01,0.00,28.1,27.1,00.0,36.8,30.0,10.7,0000.0,0010.65,0004.73,0004.16
2022-10-11 22:06:00,,0819.6,5.00,0.00,28.2,27.2,00.0,36.9,30.1,10.8,0000.0,0011.10,0004.75,0004.15
2022-10-11 22:07:00,,0819.6,5.00,0.00,28.2,27.2,00.0,36.9,30.1,10.7,0000.0,0011.73,0004.75,0004.16
2022-10-11 22:08:00,,0819.7,5.00,0.00,28.2,27.3,00.0,36.9,30.2,10.7,0000.0,0012.57,0004.71,0004.16
2022-10-11 22:09:00,,0819.7,5.01,0.00,28.3,27.3,00.0,36.9,30.2,10.8,0000.0,0013.56,0004.73,0004.18
2022-10-11 22:10:00,,0819.7,4.99,0.00,28.3,27.4,00.0,37.0,30.3,10.7,0000.0,0013.53,0004.74,0004.19
2022-10-11 22:11:00,,0819.7,5.02,0.00,28.4,27.4,00.0,37.0,30.3,10.7,0000.0,0013.37,0004.72,0004.21
2022-10-11 22:12:00,,0819.7,5.00,0.00,28.4,27.4,00.0,37.0,30.3,10.4,0000.0,0013.22,0004.68,0004.21
2022-10-11 22:13:00,,0819.7,5.01,0.00,28.4,27.5,00.0,37.0,30.4,10.6,0000.0,0013.20,0004.67,0004.23
2022-10-11 22:14:00,,0819.7,5.00,0.00,28.5,27.5,00.0,37.1,30.4,10.4,0000.0,0013.93,0004.66,0004.24
2022-10-11 22:15:00,,0819.6,4.99,0.00,28.5,27.6,00.0,37.1,30.4,10.1,0000.0,0013.03,0004.65,0004.25
2022-10-11 22:16:00,,0819.6,5.01,0.00,28.5,27.6,00.0,37.1,30.5,10.1,0000.0,0012.60,0004.67,0004.26
2022-10-11 22:17:00,,0819.7,5.00,0.00,28.6,27.7,00.0,37.2,30.5,10.1,0000.0,0011.92,0004.66,0004.28
2022-10-11 22:18:00,,0819.7,5.00,0.00,28.6,27.7,00.0,37.2,30.5,10.1,0000.0,0011.30,0004.71,0004.28
2022-10-11 22:19:00,,0819.7,5.00,0.00,28.6,27.7,00.0,37.2,30.6,10.0,0000.0,0010.06,0004.72,0004.29
2022-10-11 22:20:00,,0819.7,5.00,0.00,28.7,27.8,00.0,37.3,30.6,10.0,0000.0,0008.84,0004.71,0004.29
2022-10-11 22:21:00,,0819.7,5.01,0.00,28.7,27.9,00.0,37.3,30.7,10.0,0000.0,0009.06,0004.71,0004.30
2022-10-11 22:22:00,,0819.7,4.99,0.00,28.7,27.9,00.0,37.3,30.7,10.2,0000.0,0009.19,0004.74,0004.28
2022-10-11 22:23:00,,0819.8,5.01,0.00,28.8,27.9,00.0,37.4,30.7,10.1,0000.0,0009.80,0004.76,0004.26
2022-10-11 22:24:00,,0819.8,5.00,0.00,28.8,27.9,00.0,37.4,30.8,10.1,0000.0,0010.30,0004.72,0004.24
2022-10-11 22:25:00,,0819.8,5.01,0.00,28.8,28.0,00.0,37.4,30.8,10.3,0000.0,0009.98,0004.71,0004.21
2022-10-11 22:26:00,,0819.8,4.99,0.00,28.9,28.0,00.0,37.5,30.8,10.3,0000.0,0009.83,0004.70,0004.20
2022-10-11 22:27:00,,0819.8,5.00,0.00,28.9,28.0,00.0,37.5,30.9,09.9,0000.0,0009.85,0004.70,0004.17
2022-10-11 22:28:00,,0819.8,5.01,0.00,28.9,28.1,00.0,37.5,30.9,09.9,0000.0,0009.78,0004.67,0004.14
2022-10-11 22:29:00,,0819.9,4.99,0.00,29.0,28.1,00.0,37.5,30.9,10.1,0000.0,0010.22,0004.66,0004.12
2022-10-11 22:30:00,,0819.8,5.02,0.00,29.0,28.1,00.0,37.6,30.9,09.9,0000.0,0010.81,0004.63,0004.11
2022-10-11 22:31:00,,0819.9,4.99,0.00,29.0,28.1,00.0,37.6,31.0,10.1,0000.0,0010.80,0004.60,0004.08
2022-10-11 22:32:00,,0819.8,5.01,0.00,29.1,28.2,00.0,37.6,31.0,10.1,0000.0,0010.49,0004.57,0004.06
2022-10-11 22:33:00,,0819.8,5.00,0.00,29.1,28.2,00.0,37.7,31.0,10.3,0000.0,0010.38,0004.53,0004.05
2022-10-11 22:34:00,,0819.9,5.01,0.00,29.1,28.2,00.0,37.7,31.0,09.6,0000.0,0009.82,0004.54,0004.06
2022-10-11 22:35:00,,0819.9,4.99,0.00,29.1,28.2,00.0,37.7,31.1,09.4,0000.0,0009.26,0004.56,0004.06
2022-10-11 22:36:00,,0819.9,5.01,0.00,29.2,28.2,00.0,37.7,31.1,09.3,0000.0,0008.76,0004.54,0004.06
2022-10-11 22:37:00,,0819.9,4.99,0.00,29.2,28.3,00.0,37.8,31.1,09.4,0000.0,0008.92,0004.53,0004.06
2022-10-11 22:38:00,,0819.9,5.01,0.00,29.2,28.3,00.0,37.8,31.2,09.6,0000.0,0008.80,0004.49,0004.06
2022-10-11 22:39:00,,0819.9,4.99,0.00,29.2,28.3,00.0,37.8,31.2,09.8,0000.0,0008.85,0004.48,0004.06
2022-10-11 22:40:00,,0819.9,5.01,0.00,29.3,28.3,00.0,37.9,31.2,09.8,0000.0,0008.65,0004.40,0004.04
2022-10-11 22:41:00,,0819.9,5.01,0.00,29.3,28.3,00.0,37.9,31.2,09.8,0000.0,0007.92,0004.37,0004.02
2022-10-11 22:42:00,,0819.9,4.99,0.00,29.3,28.3,00.0,37.9,31.3,09.7,0000.0,0008.62,0004.43,0004.01
2022-10-11 22:43:00,,0819.9,5.01,0.00,29.4,28.4,00.0,37.9,31.3,09.6,0000.0,0011.05,0004.63,0004.02
2022-10-11 22:44:00,,0819.9,5.00,0.00,29.4,28.4,00.0,38.0,31.3,09.8,0000.0,0011.90,0004.78,0004.03
2022-10-11 22:45:00,,0820.0,5.00,0.00,29.4,28.4,00.0,38.0,31.3,09.6,0000.0,0011.92,0004.76,0004.02
2022-10-11 22:46:00,,0819.9,5.01,0.00,29.4,28.4,00.0,38.0,31.4,09.6,0000.0,0012.22,0004.77,0004.01
2022-10-11 22:47:00,,0819.9,4.98,0.00,29.5,28.4,00.0,38.0,31.4,09.7,0000.0,0012.34,0004.79,0003.99
2022-10-11 22:48:00,,0819.9,5.01,0.00,29.5,28.4,00.0,38.1,31.4,09.6,0000.0,0012.12,0004.80,0004.00
2022-10-11 22:49:00,,0819.9,4.99,0.00,29.5,28.4,00.0,38.1,31.4,09.7,0000.0,0012.64,0004.83,0003.98
2022-10-11 22:50:00,,0819.9,5.01,0.00,29.5,28.4,00.0,38.1,31.4,09.6,0000.0,0014.44,0004.86,0003.98
2022-10-11 22:51:00,,0819.9,4.99,0.00,29.5,28.5,00.0,38.1,31.4,09.7,0000.0,0014.17,0004.91,0003.99
2022-10-11 22:52:00,,0819.9,5.01,0.00,29.6,28.5,00.0,38.2,31.5,09.6,0000.0,0014.22,0004.94,0003.99
2022-10-11 22:53:00,,0819.9,4.97,0.00,29.6,28.5,00.0,38.2,31.5,09.6,0000.0,0015.07,0004.94,0003.98
2022-10-11 22:54:00,,0819.9,4.99,0.00,29.6,28.5,00.0,38.2,31.5,09.4,0000.0,0012.99,0004.77,0003.96
2022-10-11 22:55:00,,0820.0,5.01,0.00,29.6,28.5,00.0,38.2,31.5,09.4,0000.0,0011.67,0004.55,0003.93
2022-10-11 22:56:00,,0820.0,4.99,0.00,29.6,28.5,00.0,38.3,31.5,09.4,0000.0,0011.53,0004.48,0003.88
2022-10-11 22:57:00,,0820.0,5.00,0.00,29.6,28.5,00.0,38.3,31.5,09.1,0000.0,0011.12,0004.41,0003.85
2022-10-11 22:58:00,,0820.1,4.98,0.00,29.7,28.5,00.0,38.3,31.6,09.1,0000.0,0011.17,0004.36,0003.83
2022-10-11 22:59:00,,0820.1,5.01,0.00,29.7,28.5,00.0,38.3,31.6,09.4,0000.0,0011.72,0004.32,0003.80
